Time,TemperatureF,DewpointF,PressureIn,WindDirection,WindDirectionDegrees,WindSpeedMPH,WindSpeedGustMPH,Humidity,HourlyPrecipIn,Conditions,Clouds,dailyrainin,SolarRadiationWatts/m^2,SoftwareType,DateUTC
2013-11-19 00:00:00,51.8,48.4,29.78,SW,225,6.0,-999.0,88,0.00,,,0.76,0,Wunderground v.1.15,2013-11-19 08:00:00,
2013-11-19 00:05:00,51.8,48.4,29.78,SW,225,6.0,-999.0,88,0.00,,,0.76,0,Wunderground v.1.15,2013-11-19 08:05:00,
2013-11-19 00:10:00,51.8,48.4,29.78,South,180,8.0,-999.0,88,0.00,,,0.76,0,Wunderground v.1.15,2013-11-19 08:10:00,
2013-11-19 00:15:00,51.8,48.4,29.78,SW,225,5.0,-999.0,88,0.00,,,0.76,0,Wunderground v.1.15,2013-11-19 08:15:00,
2013-11-19 00:20:00,51.8,48.4,29.78,WSW,248,6.0,-999.0,88,0.00,,,0.76,0,Wunderground v.1.15,2013-11-19 08:20:00,
2013-11-19 00:25:00,51.8,48.4,29.78,WSW,248,5.0,-999.0,88,0.00,,,0.76,0,Wunderground v.1.15,2013-11-19 08:25:00,
2013-11-19 00:30:00,51.8,48.4,29.78,South,180,6.0,-999.0,88,0.00,,,0.76,0,Wunderground v.1.15,2013-11-19 08:30:00,
2013-11-19 00:35:00,51.9,48.5,29.78,South,180,8.0,-999.0,88,0.00,,,0.76,0,Wunderground v.1.15,2013-11-19 08:35:00,
2013-11-19 00:40:00,51.9,48.5,29.77,SSW,203,5.0,-999.0,88,0.00,,,0.76,0,Wunderground v.1.15,2013-11-19 08:40:00,
2013-11-19 00:45:00,51.8,48.4,29.77,SSW,203,6.0,-999.0,88,0.00,,,0.76,0,Wunderground v.1.15,2013-11-19 08:45:00,
2013-11-19 00:50:00,51.9,48.5,29.77,SW,225,6.0,-999.0,88,0.00,,,0.76,0,Wunderground v.1.15,2013-11-19 08:50:00,
2013-11-19 00:55:00,51.9,48.5,29.77,SW,225,6.0,-999.0,88,0.00,,,0.76,0,Wunderground v.1.15,2013-11-19 08:55:00,
2013-11-19 01:00:00,51.9,48.5,29.78,WSW,248,5.0,-999.0,88,0.00,,,0.76,0,Wunderground v.1.15,2013-11-19 09:00:00,
2013-11-19 01:05:00,51.8,48.4,29.77,SSW,203,5.0,-999.0,88,0.01,,,0.76,0,Wunderground v.1.15,2013-11-19 09:05:00,
2013-11-19 01:10:00,51.8,48.4,29.77,SSW,203,8.0,-999.0,88,0.01,,,0.76,0,Wunderground v.1.15,2013-11-19 09:10:00,
2013-11-19 01:15:00,51.8,48.4,29.77,WSW,248,7.0,-999.0,88,0.01,,,0.76,0,Wunderground v.1.15,2013-11-19 09:15:00,
2013-11-19 01:20:00,51.8,48.4,29.77,SSW,203,7.0,-999.0,88,0.01,,,0.76,0,Wunderground v.1.15,2013-11-19 09:20:00,
2013-11-19 01:25:00,51.8,48.4,29.77,WSW,248,8.0,-999.0,88,0.01,,,0.76,0,Wunderground v.1.15,2013-11-19 09:25:00,
2013-11-19 01:30:00,51.9,48.5,29.77,South,180,5.0,-999.0,88,0.01,,,0.76,0,Wunderground v.1.15,2013-11-19 09:30:00,
2013-11-19 01:35:00,51.9,48.5,29.77,South,180,7.0,-999.0,88,0.01,,,0.76,0,Wunderground v.1.15,2013-11-19 09:35:00,
2013-11-19 01:40:00,51.9,48.5,29.77,South,180,7.0,-999.0,88,0.01,,,0.76,0,Wunderground v.1.15,2013-11-19 09:40:00,
2013-11-19 01:45:00,52.0,48.6,29.77,WSW,248,5.0,-999.0,88,0.01,,,0.76,0,Wunderground v.1.15,2013-11-19 09:45:00,
2013-11-19 01:50:00,52.0,48.6,29.76,South,180,4.0,-999.0,88,0.01,,,0.76,0,Wunderground v.1.15,2013-11-19 09:50:00,
2013-11-19 01:55:00,52.1,48.7,29.77,SSW,203,6.0,-999.0,88,0.01,,,0.76,0,Wunderground v.1.15,2013-11-19 09:55:00,
2013-11-19 02:00:00,52.1,48.7,29.77,South,180,8.0,-999.0,88,0.01,,,0.76,0,Wunderground v.1.15,2013-11-19 10:00:00,
2013-11-19 02:05:00,52.2,48.8,29.77,SSW,203,6.0,-999.0,88,0.00,,,0.76,0,Wunderground v.1.15,2013-11-19 10:05:00,
2013-11-19 02:10:00,52.2,48.8,29.77,South,180,5.0,-999.0,88,0.00,,,0.76,0,Wunderground v.1.15,2013-11-19 10:10:00,
2013-11-19 02:15:00,52.2,48.8,29.77,SW,225,6.0,-999.0,88,0.00,,,0.76,0,Wunderground v.1.15,2013-11-19 10:15:00,
2013-11-19 02:20:00,52.2,48.8,29.77,South,180,5.0,-999.0,88,0.00,,,0.76,0,Wunderground v.1.15,2013-11-19 10:20:00,
2013-11-19 02:25:00,52.2,48.8,29.77,South,180,6.0,-999.0,88,0.00,,,0.76,0,Wunderground v.1.15,2013-11-19 10:25:00,
2013-11-19 02:30:00,52.2,48.8,29.77,South,180,5.0,-999.0,88,0.00,,,0.76,0,Wunderground v.1.15,2013-11-19 10:30:00,
2013-11-19 02:35:00,52.2,48.8,29.77,SW,225,6.0,-999.0,88,0.00,,,0.76,0,Wunderground v.1.15,2013-11-19 10:35:00,
2013-11-19 02:40:00,52.3,48.9,29.77,SW,225,6.0,-999.0,88,0.00,,,0.76,0,Wunderground v.1.15,2013-11-19 10:40:00,
2013-11-19 02:45:00,52.3,48.9,29.77,South,180,5.0,-999.0,88,0.00,,,0.76,0,Wunderground v.1.15,2013-11-19 10:45:00,
2013-11-19 02:50:00,52.3,48.9,29.77,South,180,7.0,-999.0,88,0.00,,,0.76,0,Wunderground v.1.15,2013-11-19 10:50:00,
2013-11-19 02:55:00,52.3,48.9,29.77,South,180,5.0,-999.0,88,0.00,,,0.76,0,Wunderground v.1.15,2013-11-19 10:55:00,
2013-11-19 03:00:00,52.3,48.9,29.77,SSW,203,6.0,-999.0,88,0.00,,,0.76,0,Wunderground v.1.15,2013-11-19 11:00:00,
2013-11-19 03:05:00,52.3,48.9,29.77,South,180,7.0,-999.0,88,0.01,,,0.76,0,Wunderground v.1.15,2013-11-19 11:05:00,
2013-11-19 03:10:00,52.3,48.9,29.76,South,180,6.0,-999.0,88,0.01,,,0.76,0,Wunderground v.1.15,2013-11-19 11:10:00,
2013-11-19 03:15:00,52.3,48.9,29.76,South,180,5.0,-999.0,88,0.01,,,0.76,0,Wunderground v.1.15,2013-11-19 11:15:00,
2013-11-19 03:20:00,52.3,48.9,29.76,South,180,6.0,-999.0,88,0.01,,,0.76,0,Wunderground v.1.15,2013-11-19 11:20:00,
2013-11-19 03:25:00,52.3,48.9,29.76,South,180,6.0,-999.0,88,0.01,,,0.76,0,Wunderground v.1.15,2013-11-19 11:25:00,
2013-11-19 03:30:00,52.3,48.9,29.76,SSW,203,5.0,-999.0,88,0.01,,,0.76,0,Wunderground v.1.15,2013-11-19 11:30:00,
2013-11-19 03:35:00,52.3,48.9,29.76,South,180,5.0,-999.0,88,0.01,,,0.76,0,Wunderground v.1.15,2013-11-19 11:35:00,
2013-11-19 03:40:00,52.2,48.8,29.76,SW,225,5.0,-999.0,88,0.02,,,0.76,0,Wunderground v.1.15,2013-11-19 11:40:00,
2013-11-19 03:45:00,52.2,48.8,29.76,SSW,203,6.0,-999.0,88,0.02,,,0.76,0,Wunderground v.1.15,2013-11-19 11:45:00,
2013-11-19 03:50:00,52.2,48.8,29.76,South,180,5.0,-999.0,88,0.02,,,0.76,0,Wunderground v.1.15,2013-11-19 11:50:00,
2013-11-19 03:55:00,52.2,48.8,29.76,South,180,4.0,-999.0,88,0.02,,,0.76,0,Wunderground v.1.15,2013-11-19 11:55:00,
2013-11-19 04:00:00,52.2,48.8,29.75,SSW,203,6.0,-999.0,88,0.02,,,0.76,0,Wunderground v.1.15,2013-11-19 12:00:00,
2013-11-19 04:05:00,52.3,48.9,29.75,SSW,203,5.0,-999.0,88,0.02,,,0.76,0,Wunderground v.1.15,2013-11-19 12:05:00,
2013-11-19 04:10:00,52.3,48.9,29.75,SSW,203,6.0,-999.0,88,0.03,,,0.76,0,Wunderground v.1.15,2013-11-19 12:10:00,
2013-11-19 04:15:00,52.3,48.9,29.75,WSW,248,5.0,-999.0,88,0.03,,,0.76,0,Wunderground v.1.15,2013-11-19 12:15:00,
2013-11-19 04:20:00,52.3,48.9,29.75,West,270,4.0,-999.0,88,0.04,,,0.76,0,Wunderground v.1.15,2013-11-19 12:20:00,
2013-11-19 04:25:00,52.3,48.9,29.75,WSW,248,4.0,-999.0,88,0.05,,,0.76,0,Wunderground v.1.15,2013-11-19 12:25:00,
2013-11-19 04:30:00,52.3,48.9,29.75,SW,225,5.0,-999.0,88,0.06,,,0.76,0,Wunderground v.1.15,2013-11-19 12:30:00,
2013-11-19 04:35:00,52.3,48.9,29.75,SW,225,4.0,-999.0,88,0.07,,,0.76,0,Wunderground v.1.15,2013-11-19 12:35:00,
2013-11-19 04:40:00,52.3,48.9,29.75,South,180,4.0,-999.0,88,0.07,,,0.76,0,Wunderground v.1.15,2013-11-19 12:40:00,
2013-11-19 04:45:00,52.3,48.9,29.75,South,180,4.0,-999.0,88,0.07,,,0.76,0,Wunderground v.1.15,2013-11-19 12:45:00,
2013-11-19 04:50:00,52.3,48.9,29.75,SSW,203,5.0,-999.0,88,0.08,,,0.76,0,Wunderground v.1.15,2013-11-19 12:50:00,
2013-11-19 04:55:00,52.3,48.9,29.75,SW,225,4.0,-999.0,88,0.09,,,0.76,0,Wunderground v.1.15,2013-11-19 12:55:00,
2013-11-19 05:00:00,52.3,48.9,29.75,WSW,248,3.0,-999.0,88,0.10,,,0.76,0,Wunderground v.1.15,2013-11-19 13:00:00,
2013-11-19 05:05:00,52.3,48.9,29.75,SW,225,4.0,-999.0,88,0.11,,,0.76,0,Wunderground v.1.15,2013-11-19 13:05:00,
2013-11-19 05:10:00,52.3,48.9,29.75,SW,225,4.0,-999.0,88,0.12,,,0.76,0,Wunderground v.1.15,2013-11-19 13:10:00,
2013-11-19 05:15:00,52.3,48.9,29.75,WSW,248,5.0,-999.0,88,0.14,,,0.76,0,Wunderground v.1.15,2013-11-19 13:15:00,
2013-11-19 05:20:00,52.3,48.9,29.75,WSW,248,4.0,-999.0,88,0.14,,,0.76,0,Wunderground v.1.15,2013-11-19 13:20:00,
2013-11-19 05:25:00,52.3,48.9,29.75,SW,225,6.0,-999.0,88,0.15,,,0.76,0,Wunderground v.1.15,2013-11-19 13:25:00,
2013-11-19 05:30:00,52.3,48.9,29.75,WSW,248,6.0,-999.0,88,0.17,,,0.76,0,Wunderground v.1.15,2013-11-19 13:30:00,
2013-11-19 05:35:00,52.3,48.9,29.75,WSW,248,3.0,-999.0,88,0.19,,,0.76,0,Wunderground v.1.15,2013-11-19 13:35:00,
2013-11-19 05:40:00,52.3,48.9,29.75,South,180,5.0,-999.0,88,0.19,,,0.76,0,Wunderground v.1.15,2013-11-19 13:40:00,
2013-11-19 05:45:00,52.3,48.9,29.75,SSW,203,5.0,-999.0,88,0.20,,,0.76,0,Wunderground v.1.15,2013-11-19 13:45:00,
2013-11-19 05:50:00,52.3,48.9,29.75,South,180,4.0,-999.0,88,0.21,,,0.76,0,Wunderground v.1.15,2013-11-19 13:50:00,
2013-11-19 05:55:00,52.3,48.9,29.75,SW,225,4.0,-999.0,88,0.22,,,0.76,0,Wunderground v.1.15,2013-11-19 13:55:00,
2013-11-19 06:00:00,52.3,48.9,29.74,SW,225,5.0,-999.0,88,0.23,,,0.76,0,Wunderground v.1.15,2013-11-19 14:00:00,
2013-11-19 06:05:00,52.3,48.9,29.74,SW,225,6.0,-999.0,88,0.25,,,0.76,0,Wunderground v.1.15,2013-11-19 14:05:00,
2013-11-19 06:10:00,52.3,48.9,29.75,West,270,4.0,-999.0,88,0.25,,,0.76,0,Wunderground v.1.15,2013-11-19 14:10:00,
2013-11-19 06:15:00,52.2,48.8,29.76,WNW,293,8.0,-999.0,88,0.27,,,0.76,0,Wunderground v.1.15,2013-11-19 14:15:00,
2013-11-19 06:20:00,52.2,48.8,29.75,WSW,248,3.0,-999.0,88,0.31,,,0.76,0,Wunderground v.1.15,2013-11-19 14:20:00,
2013-11-19 06:25:00,51.7,48.3,29.76,WNW,293,3.0,-999.0,88,0.33,,,0.76,0,Wunderground v.1.15,2013-11-19 14:25:00,
2013-11-19 06:30:00,51.0,47.6,29.76,NE,45,3.0,-999.0,88,0.34,,,0.76,0,Wunderground v.1.15,2013-11-19 14:30:00,
2013-11-19 06:35:00,50.4,47.3,29.77,NW,315,2.0,-999.0,89,0.35,,,0.76,0,Wunderground v.1.15,2013-11-19 14:35:00,
2013-11-19 06:40:00,50.2,46.8,29.77,ENE,68,2.0,-999.0,88,0.35,,,0.76,0,Wunderground v.1.15,2013-11-19 14:40:00,
2013-11-19 06:45:00,50.0,46.6,29.77,NE,45,3.0,-999.0,88,0.36,,,0.76,0,Wunderground v.1.15,2013-11-19 14:45:00,
2013-11-19 06:50:00,49.9,46.5,29.77,NE,45,2.0,-999.0,88,0.36,,,0.76,0,Wunderground v.1.15,2013-11-19 14:50:00,
2013-11-19 06:55:00,49.8,46.4,29.77,SSE,158,2.0,-999.0,88,0.37,,,0.76,0,Wunderground v.1.15,2013-11-19 14:55:00,
2013-11-19 07:00:00,49.8,46.4,29.78,NE,45,3.0,-999.0,88,0.35,,,0.76,0,Wunderground v.1.15,2013-11-19 15:00:00,
2013-11-19 07:05:00,49.7,46.3,29.78,ENE,68,2.0,-999.0,88,0.32,,,0.76,0,Wunderground v.1.15,2013-11-19 15:05:00,
2013-11-19 07:10:00,49.7,46.3,29.78,NNE,23,2.0,-999.0,88,0.31,,,0.76,0,Wunderground v.1.15,2013-11-19 15:10:00,
2013-11-19 07:15:00,49.7,46.3,29.78,NE,45,3.0,-999.0,88,0.27,,,0.76,0,Wunderground v.1.15,2013-11-19 15:15:00,
2013-11-19 07:20:00,49.6,46.2,29.79,ENE,68,4.0,-999.0,88,0.22,,,0.76,0,Wunderground v.1.15,2013-11-19 15:20:00,
2013-11-19 07:25:00,49.5,46.1,29.79,ENE,68,4.0,-999.0,88,0.18,,,0.76,0,Wunderground v.1.15,2013-11-19 15:25:00,
2013-11-19 07:30:00,49.4,46.0,29.80,East,90,2.0,-999.0,88,0.14,,,0.76,0,Wunderground v.1.15,2013-11-19 15:30:00,
2013-11-19 07:35:00,49.3,45.9,29.80,NNE,23,3.0,-999.0,88,0.10,,,0.76,0,Wunderground v.1.15,2013-11-19 15:35:00,
2013-11-19 07:40:00,49.2,45.8,29.80,ENE,68,3.0,-999.0,88,0.09,,,0.76,0,Wunderground v.1.15,2013-11-19 15:40:00,
2013-11-19 07:45:00,49.1,45.7,29.80,NNW,338,3.0,-999.0,88,0.07,,,0.76,2,Wunderground v.1.15,2013-11-19 15:45:00,
2013-11-19 07:50:00,49.0,45.6,29.81,ENE,68,3.0,-999.0,88,0.05,,,0.76,10,Wunderground v.1.15,2013-11-19 15:50:00,
2013-11-19 07:55:00,48.9,45.5,29.81,NNE,23,4.0,-999.0,88,0.02,,,0.76,12,Wunderground v.1.15,2013-11-19 15:55:00,
2013-11-19 08:00:00,48.7,45.3,29.81,NNE,23,3.0,-999.0,88,0.02,,,0.76,20,Wunderground v.1.15,2013-11-19 16:00:00,
2013-11-19 08:05:00,48.6,45.2,29.81,NNE,23,4.0,-999.0,88,0.01,,,0.76,30,Wunderground v.1.15,2013-11-19 16:05:00,
2013-11-19 08:10:00,48.7,45.3,29.81,NW,315,3.0,-999.0,88,0.00,,,0.76,36,Wunderground v.1.15,2013-11-19 16:10:00,
2013-11-19 08:15:00,48.6,45.2,29.81,North,0,3.0,-999.0,88,0.01,,,0.76,43,Wunderground v.1.15,2013-11-19 16:15:00,
2013-11-19 08:20:00,48.5,45.1,29.82,NNE,23,3.0,-999.0,88,0.01,,,0.76,36,Wunderground v.1.15,2013-11-19 16:20:00,
2013-11-19 08:25:00,48.4,45.0,29.82,ENE,68,3.0,-999.0,88,0.01,,,0.76,36,Wunderground v.1.15,2013-11-19 16:25:00,
2013-11-19 08:30:00,48.4,45.0,29.82,ENE,68,2.0,-999.0,88,0.01,,,0.76,47,Wunderground v.1.15,2013-11-19 16:30:00,
2013-11-19 08:35:00,48.5,45.1,29.82,NE,45,2.0,-999.0,88,0.01,,,0.76,55,Wunderground v.1.15,2013-11-19 16:35:00,
2013-11-19 08:40:00,48.5,45.1,29.82,West,270,2.0,-999.0,88,0.01,,,0.76,68,Wunderground v.1.15,2013-11-19 16:40:00,
2013-11-19 08:45:00,48.5,45.1,29.83,South,180,2.0,-999.0,88,0.01,,,0.76,74,Wunderground v.1.15,2013-11-19 16:45:00,
2013-11-19 08:50:00,48.5,45.1,29.83,NE,45,2.0,-999.0,88,0.01,,,0.76,70,Wunderground v.1.15,2013-11-19 16:50:00,
2013-11-19 08:55:00,48.5,45.1,29.83,ENE,68,3.0,-999.0,88,0.01,,,0.76,68,Wunderground v.1.15,2013-11-19 16:55:00,
2013-11-19 09:00:00,48.5,45.1,29.83,NE,45,3.0,-999.0,88,0.01,,,0.76,68,Wunderground v.1.15,2013-11-19 17:00:00,
2013-11-19 09:05:00,48.5,45.1,29.83,ENE,68,2.0,-999.0,88,0.01,,,0.76,62,Wunderground v.1.15,2013-11-19 17:05:00,
2013-11-19 09:10:00,48.3,44.9,29.84,NE,45,3.0,-999.0,88,0.01,,,0.76,42,Wunderground v.1.15,2013-11-19 17:10:00,
2013-11-19 09:15:00,48.3,44.9,29.84,West,270,3.0,-999.0,88,0.00,,,0.76,28,Wunderground v.1.15,2013-11-19 17:15:00,
2013-11-19 09:20:00,48.3,44.9,29.84,NE,45,4.0,-999.0,88,0.00,,,0.76,56,Wunderground v.1.15,2013-11-19 17:20:00,
2013-11-19 09:25:00,48.2,44.8,29.84,NW,315,4.0,-999.0,88,0.00,,,0.76,64,Wunderground v.1.15,2013-11-19 17:25:00,
2013-11-19 09:30:00,48.2,44.8,29.85,North,0,3.0,-999.0,88,0.00,,,0.76,71,Wunderground v.1.15,2013-11-19 17:30:00,
2013-11-19 09:35:00,48.2,44.8,29.85,ENE,68,2.0,-999.0,88,0.00,,,0.76,79,Wunderground v.1.15,2013-11-19 17:35:00,
2013-11-19 09:40:00,48.3,44.9,29.85,NE,45,1.0,-999.0,88,0.00,,,0.76,87,Wunderground v.1.15,2013-11-19 17:40:00,
2013-11-19 09:45:00,48.6,45.2,29.85,ENE,68,2.0,-999.0,88,0.00,,,0.76,110,Wunderground v.1.15,2013-11-19 17:45:00,
2013-11-19 09:50:00,48.7,45.3,29.85,NNE,23,2.0,-999.0,88,0.00,,,0.76,132,Wunderground v.1.15,2013-11-19 17:50:00,
2013-11-19 09:55:00,48.8,45.4,29.86,NE,45,2.0,-999.0,88,0.00,,,0.76,104,Wunderground v.1.15,2013-11-19 17:55:00,
2013-11-19 10:00:00,48.7,45.3,29.86,ENE,68,3.0,-999.0,88,0.00,,,0.76,85,Wunderground v.1.15,2013-11-19 18:00:00,
2013-11-19 10:05:00,48.6,45.2,29.86,NE,45,3.0,-999.0,88,0.00,,,0.76,58,Wunderground v.1.15,2013-11-19 18:05:00,
2013-11-19 10:10:00,48.4,45.0,29.87,ENE,68,3.0,-999.0,88,0.00,,,0.76,70,Wunderground v.1.15,2013-11-19 18:10:00,
2013-11-19 10:15:00,48.3,44.9,29.87,West,270,3.0,-999.0,88,0.00,,,0.76,63,Wunderground v.1.15,2013-11-19 18:15:00,
2013-11-19 10:20:00,48.4,45.0,29.87,WNW,293,3.0,-999.0,88,0.01,,,0.76,90,Wunderground v.1.15,2013-11-19 18:20:00,
2013-11-19 10:25:00,48.4,45.0,29.87,North,0,2.0,-999.0,88,0.01,,,0.76,79,Wunderground v.1.15,2013-11-19 18:25:00,
2013-11-19 10:30:00,48.5,45.1,29.87,NW,315,2.0,-999.0,88,0.01,,,0.76,103,Wunderground v.1.15,2013-11-19 18:30:00,
2013-11-19 10:35:00,48.5,45.1,29.88,WSW,248,3.0,-999.0,88,0.01,,,0.76,100,Wunderground v.1.15,2013-11-19 18:35:00,
2013-11-19 10:40:00,48.5,45.1,29.88,NE,45,3.0,-999.0,88,0.01,,,0.76,84,Wunderground v.1.15,2013-11-19 18:40:00,
2013-11-19 10:45:00,48.4,45.0,29.89,ENE,68,4.0,-999.0,88,0.01,,,0.76,93,Wunderground v.1.15,2013-11-19 18:45:00,
2013-11-19 10:50:00,48.3,44.9,29.88,NE,45,2.0,-999.0,88,0.01,,,0.76,123,Wunderground v.1.15,2013-11-19 18:50:00,
2013-11-19 10:55:00,48.3,44.9,29.89,North,0,1.0,-999.0,88,0.01,,,0.76,86,Wunderground v.1.15,2013-11-19 18:55:00,
2013-11-19 11:00:00,48.2,44.8,29.89,NNE,23,2.0,-999.0,88,0.01,,,0.76,57,Wunderground v.1.15,2013-11-19 19:00:00,
2013-11-19 11:05:00,48.1,44.7,29.89,NE,45,2.0,-999.0,88,0.01,,,0.76,51,Wunderground v.1.15,2013-11-19 19:05:00,
2013-11-19 11:10:00,47.9,44.8,29.89,ENE,68,3.0,-999.0,89,0.02,,,0.76,66,Wunderground v.1.15,2013-11-19 19:10:00,
2013-11-19 11:15:00,47.7,44.6,29.89,NW,315,4.0,-999.0,89,0.02,,,0.76,66,Wunderground v.1.15,2013-11-19 19:15:00,
2013-11-19 11:20:00,47.7,44.6,29.89,ENE,68,2.0,-999.0,89,0.01,,,0.76,72,Wunderground v.1.15,2013-11-19 19:20:00,
2013-11-19 11:25:00,47.6,44.5,29.89,West,270,3.0,-999.0,89,0.01,,,0.76,98,Wunderground v.1.15,2013-11-19 19:25:00,
2013-11-19 11:30:00,47.7,44.6,29.89,NE,45,3.0,-999.0,89,0.01,,,0.76,88,Wunderground v.1.15,2013-11-19 19:30:00,
2013-11-19 11:35:00,47.5,44.4,29.89,East,90,2.0,-999.0,89,0.01,,,0.76,75,Wunderground v.1.15,2013-11-19 19:35:00,
2013-11-19 11:40:00,47.2,44.1,29.89,NNE,23,3.0,-999.0,89,0.01,,,0.76,100,Wunderground v.1.15,2013-11-19 19:40:00,
2013-11-19 11:45:00,47.4,44.0,29.89,ENE,68,3.0,-999.0,88,0.01,,,0.76,99,Wunderground v.1.15,2013-11-19 19:45:00,
2013-11-19 11:50:00,47.2,44.1,29.89,NW,315,2.0,-999.0,89,0.01,,,0.76,96,Wunderground v.1.15,2013-11-19 19:50:00,
2013-11-19 11:55:00,47.2,44.1,29.89,NE,45,3.0,-999.0,89,0.01,,,0.76,97,Wunderground v.1.15,2013-11-19 19:55:00,
2013-11-19 12:00:00,47.0,43.9,29.89,WSW,248,2.0,-999.0,89,0.01,,,0.76,69,Wunderground v.1.15,2013-11-19 20:00:00,
2013-11-19 12:05:00,46.9,43.8,29.89,ENE,68,3.0,-999.0,89,0.01,,,0.76,68,Wunderground v.1.15,2013-11-19 20:05:00,
2013-11-19 12:10:00,46.8,43.7,29.89,ENE,68,3.0,-999.0,89,0.00,,,0.76,99,Wunderground v.1.15,2013-11-19 20:10:00,
2013-11-19 12:15:00,46.8,43.7,29.89,North,0,2.0,-999.0,89,0.00,,,0.76,86,Wunderground v.1.15,2013-11-19 20:15:00,
2013-11-19 12:20:00,46.7,43.6,29.90,NW,315,3.0,-999.0,89,0.00,,,0.76,75,Wunderground v.1.15,2013-11-19 20:20:00,
2013-11-19 12:25:00,46.6,43.5,29.90,WNW,293,3.0,-999.0,89,0.00,,,0.76,79,Wunderground v.1.15,2013-11-19 20:25:00,
2013-11-19 12:30:00,46.5,43.4,29.90,WNW,293,1.0,-999.0,89,0.00,,,0.76,92,Wunderground v.1.15,2013-11-19 20:30:00,
2013-11-19 12:35:00,46.6,43.5,29.90,East,90,3.0,-999.0,89,0.00,,,0.76,103,Wunderground v.1.15,2013-11-19 20:35:00,
2013-11-19 12:40:00,46.6,43.5,29.90,NE,45,2.0,-999.0,89,0.00,,,0.76,122,Wunderground v.1.15,2013-11-19 20:40:00,
2013-11-19 12:45:00,46.5,43.4,29.90,NE,45,3.0,-999.0,89,0.00,,,0.76,110,Wunderground v.1.15,2013-11-19 20:45:00,
2013-11-19 12:50:00,46.7,43.6,29.90,ENE,68,2.0,-999.0,89,0.00,,,0.76,127,Wunderground v.1.15,2013-11-19 20:50:00,
2013-11-19 12:55:00,46.7,43.6,29.90,NNE,23,3.0,-999.0,89,0.00,,,0.76,135,Wunderground v.1.15,2013-11-19 20:55:00,
2013-11-19 13:00:00,46.7,43.6,29.90,ENE,68,4.0,-999.0,89,0.00,,,0.76,135,Wunderground v.1.15,2013-11-19 21:00:00,
2013-11-19 13:05:00,46.9,43.8,29.90,NE,45,3.0,-999.0,89,0.00,,,0.76,96,Wunderground v.1.15,2013-11-19 21:05:00,
2013-11-19 13:10:00,47.0,43.9,29.90,ENE,68,2.0,-999.0,89,0.00,,,0.76,114,Wunderground v.1.15,2013-11-19 21:10:00,
2013-11-19 13:15:00,47.0,43.9,29.90,ENE,68,2.0,-999.0,89,0.00,,,0.76,98,Wunderground v.1.15,2013-11-19 21:15:00,
2013-11-19 13:20:00,46.9,43.8,29.90,NNE,23,2.0,-999.0,89,0.00,,,0.76,82,Wunderground v.1.15,2013-11-19 21:20:00,
2013-11-19 13:25:00,47.0,43.9,29.90,ENE,68,3.0,-999.0,89,0.00,,,0.76,89,Wunderground v.1.15,2013-11-19 21:25:00,
2013-11-19 13:30:00,47.0,43.9,29.90,North,0,2.0,-999.0,89,0.00,,,0.76,101,Wunderground v.1.15,2013-11-19 21:30:00,
2013-11-19 13:35:00,47.0,43.9,29.90,NW,315,2.0,-999.0,89,0.00,,,0.76,131,Wunderground v.1.15,2013-11-19 21:35:00,
2013-11-19 13:40:00,47.1,44.0,29.90,West,270,2.0,-999.0,89,0.00,,,0.76,118,Wunderground v.1.15,2013-11-19 21:40:00,
2013-11-19 13:45:00,47.0,44.2,29.91,NNE,23,3.0,-999.0,90,0.00,,,0.76,105,Wunderground v.1.15,2013-11-19 21:45:00,
2013-11-19 13:50:00,47.0,44.2,29.91,WNW,293,2.0,-999.0,90,0.00,,,0.76,86,Wunderground v.1.15,2013-11-19 21:50:00,
2013-11-19 13:55:00,47.1,44.3,29.90,NE,45,2.0,-999.0,90,0.00,,,0.76,92,Wunderground v.1.15,2013-11-19 21:55:00,
2013-11-19 14:00:00,47.0,44.2,29.90,ENE,68,2.0,-999.0,90,0.00,,,0.76,90,Wunderground v.1.15,2013-11-19 22:00:00,
2013-11-19 14:05:00,46.9,44.1,29.91,NE,45,3.0,-999.0,90,0.00,,,0.76,103,Wunderground v.1.15,2013-11-19 22:05:00,
2013-11-19 14:10:00,47.0,44.2,29.90,ENE,68,2.0,-999.0,90,0.00,,,0.76,114,Wunderground v.1.15,2013-11-19 22:10:00,
2013-11-19 14:15:00,47.1,44.3,29.90,SSW,203,2.0,-999.0,90,0.00,,,0.76,117,Wunderground v.1.15,2013-11-19 22:15:00,
2013-11-19 14:20:00,47.2,44.4,29.90,NE,45,2.0,-999.0,90,0.00,,,0.76,123,Wunderground v.1.15,2013-11-19 22:20:00,
2013-11-19 14:25:00,47.2,44.4,29.90,NE,45,2.0,-999.0,90,0.00,,,0.76,129,Wunderground v.1.15,2013-11-19 22:25:00,
2013-11-19 14:30:00,47.3,44.5,29.90,NE,45,3.0,-999.0,90,0.00,,,0.76,114,Wunderground v.1.15,2013-11-19 22:30:00,
2013-11-19 14:35:00,47.2,44.4,29.90,NE,45,3.0,-999.0,90,0.00,,,0.76,100,Wunderground v.1.15,2013-11-19 22:35:00,
2013-11-19 14:40:00,47.2,44.4,29.90,NE,45,1.0,-999.0,90,0.00,,,0.76,99,Wunderground v.1.15,2013-11-19 22:40:00,
2013-11-19 14:45:00,47.1,44.3,29.90,ENE,68,2.0,-999.0,90,0.00,,,0.76,98,Wunderground v.1.15,2013-11-19 22:45:00,
2013-11-19 14:50:00,47.1,44.3,29.90,East,90,2.0,-999.0,90,0.00,,,0.76,96,Wunderground v.1.15,2013-11-19 22:50:00,
2013-11-19 14:55:00,47.1,44.3,29.90,ENE,68,2.0,-999.0,90,0.00,,,0.76,86,Wunderground v.1.15,2013-11-19 22:55:00,
2013-11-19 15:00:00,47.0,44.2,29.90,ENE,68,2.0,-999.0,90,0.00,,,0.76,87,Wunderground v.1.15,2013-11-19 23:00:00,
2013-11-19 15:05:00,47.1,44.3,29.90,East,90,2.0,-999.0,90,0.00,,,0.76,70,Wunderground v.1.15,2013-11-19 23:05:00,
2013-11-19 15:10:00,47.0,44.2,29.90,ENE,68,3.0,-999.0,90,0.00,,,0.76,53,Wunderground v.1.15,2013-11-19 23:10:00,
2013-11-19 15:15:00,46.8,44.0,29.90,NE,45,4.0,-999.0,90,0.00,,,0.76,43,Wunderground v.1.15,2013-11-19 23:15:00,
2013-11-19 15:20:00,46.8,44.0,29.90,NNE,23,3.0,-999.0,90,0.00,,,0.76,31,Wunderground v.1.15,2013-11-19 23:20:00,
2013-11-19 15:25:00,46.7,43.9,29.90,WNW,293,2.0,-999.0,90,0.00,,,0.76,33,Wunderground v.1.15,2013-11-19 23:25:00,
2013-11-19 15:30:00,46.7,43.9,29.91,ENE,68,3.0,-999.0,90,0.00,,,0.76,36,Wunderground v.1.15,2013-11-19 23:30:00,
2013-11-19 15:35:00,46.6,43.8,29.91,NE,45,2.0,-999.0,90,0.00,,,0.76,35,Wunderground v.1.15,2013-11-19 23:35:00,
2013-11-19 15:40:00,46.4,43.6,29.91,East,90,3.0,-999.0,90,0.00,,,0.76,33,Wunderground v.1.15,2013-11-19 23:40:00,
2013-11-19 15:45:00,46.4,43.6,29.91,ENE,68,2.0,-999.0,90,0.00,,,0.76,30,Wunderground v.1.15,2013-11-19 23:45:00,
2013-11-19 15:50:00,46.3,43.5,29.91,WNW,293,2.0,-999.0,90,0.00,,,0.76,32,Wunderground v.1.15,2013-11-19 23:50:00,
2013-11-19 15:55:00,46.3,43.5,29.92,NE,45,2.0,-999.0,90,0.00,,,0.76,31,Wunderground v.1.15,2013-11-19 23:55:00,
2013-11-19 16:00:00,46.3,43.5,29.92,NE,45,3.0,-999.0,90,0.00,,,0.76,29,Wunderground v.1.15,2013-11-20 00:00:00,
2013-11-19 16:05:00,46.2,43.4,29.92,NNE,23,3.0,-999.0,90,0.00,,,0.76,27,Wunderground v.1.15,2013-11-20 00:05:00,
2013-11-19 16:10:00,46.2,43.4,29.92,ENE,68,3.0,-999.0,90,0.00,,,0.76,22,Wunderground v.1.15,2013-11-20 00:10:00,
2013-11-19 16:15:00,46.2,43.4,29.92,ENE,68,2.0,-999.0,90,0.00,,,0.76,18,Wunderground v.1.15,2013-11-20 00:15:00,
2013-11-19 16:20:00,46.1,43.3,29.92,NE,45,3.0,-999.0,90,0.00,,,0.76,13,Wunderground v.1.15,2013-11-20 00:20:00,
2013-11-19 16:25:00,46.1,43.3,29.92,NNE,23,1.0,-999.0,90,0.00,,,0.76,11,Wunderground v.1.15,2013-11-20 00:25:00,
2013-11-19 16:30:00,45.9,43.1,29.92,NE,45,3.0,-999.0,90,0.00,,,0.76,8,Wunderground v.1.15,2013-11-20 00:30:00,
2013-11-19 16:35:00,45.8,43.0,29.92,NE,45,3.0,-999.0,90,0.00,,,0.76,6,Wunderground v.1.15,2013-11-20 00:35:00,
2013-11-19 16:40:00,45.8,43.0,29.92,ENE,68,3.0,-999.0,90,0.00,,,0.76,3,Wunderground v.1.15,2013-11-20 00:40:00,
2013-11-19 16:45:00,45.7,42.9,29.92,ENE,68,2.0,-999.0,90,0.00,,,0.76,0,Wunderground v.1.15,2013-11-20 00:45:00,
2013-11-19 16:50:00,45.5,42.7,29.92,NE,45,2.0,-999.0,90,0.00,,,0.76,0,Wunderground v.1.15,2013-11-20 00:50:00,
2013-11-19 16:55:00,45.3,42.5,29.92,NE,45,2.0,-999.0,90,0.00,,,0.76,0,Wunderground v.1.15,2013-11-20 00:55:00,
2013-11-19 17:00:00,45.2,42.4,29.92,NE,45,1.0,-999.0,90,0.00,,,0.76,0,Wunderground v.1.15,2013-11-20 01:00:00,
2013-11-19 17:05:00,45.2,42.4,29.92,East,90,3.0,-999.0,90,0.00,,,0.76,0,Wunderground v.1.15,2013-11-20 01:05:00,
2013-11-19 17:10:00,45.4,42.6,29.92,ENE,68,4.0,-999.0,90,0.00,,,0.76,0,Wunderground v.1.15,2013-11-20 01:10:00,
2013-11-19 17:15:00,45.6,42.8,29.92,ENE,68,4.0,-999.0,90,0.00,,,0.76,0,Wunderground v.1.15,2013-11-20 01:15:00,
2013-11-19 17:20:00,45.6,42.8,29.92,East,90,3.0,-999.0,90,0.00,,,0.76,0,Wunderground v.1.15,2013-11-20 01:20:00,
2013-11-19 17:25:00,45.6,42.8,29.92,ENE,68,4.0,-999.0,90,0.00,,,0.76,0,Wunderground v.1.15,2013-11-20 01:25:00,
2013-11-19 17:30:00,45.5,42.7,29.92,East,90,3.0,-999.0,90,0.00,,,0.76,0,Wunderground v.1.15,2013-11-20 01:30:00,
2013-11-19 17:35:00,45.2,42.4,29.93,NE,45,4.0,-999.0,90,0.00,,,0.76,0,Wunderground v.1.15,2013-11-20 01:35:00,
2013-11-19 17:40:00,45.2,42.4,29.93,ENE,68,3.0,-999.0,90,0.00,,,0.76,0,Wunderground v.1.15,2013-11-20 01:40:00,
2013-11-19 17:45:00,45.2,42.4,29.92,NE,45,5.0,-999.0,90,0.00,,,0.76,0,Wunderground v.1.15,2013-11-20 01:45:00,
2013-11-19 17:50:00,45.2,42.4,29.93,ENE,68,5.0,-999.0,90,0.00,,,0.76,0,Wunderground v.1.15,2013-11-20 01:50:00,
2013-11-19 17:55:00,45.0,42.2,29.93,ENE,68,4.0,-999.0,90,0.00,,,0.76,0,Wunderground v.1.15,2013-11-20 01:55:00,
2013-11-19 18:00:00,44.9,41.9,29.93,ENE,68,4.0,-999.0,89,0.00,,,0.76,0,Wunderground v.1.15,2013-11-20 02:00:00,
2013-11-19 18:05:00,44.8,41.8,29.93,ENE,68,3.0,-999.0,89,0.00,,,0.76,0,Wunderground v.1.15,2013-11-20 02:05:00,
2013-11-19 18:10:00,44.7,41.7,29.94,ENE,68,5.0,-999.0,89,0.00,,,0.76,0,Wunderground v.1.15,2013-11-20 02:10:00,
2013-11-19 18:15:00,44.5,41.5,29.94,ENE,68,4.0,-999.0,89,0.00,,,0.76,0,Wunderground v.1.15,2013-11-20 02:15:00,
2013-11-19 18:20:00,44.3,41.3,29.94,ENE,68,4.0,-999.0,89,0.00,,,0.76,0,Wunderground v.1.15,2013-11-20 02:20:00,
2013-11-19 18:25:00,44.2,41.2,29.94,ENE,68,3.0,-999.0,89,0.00,,,0.76,0,Wunderground v.1.15,2013-11-20 02:25:00,
2013-11-19 18:30:00,44.1,41.1,29.94,ENE,68,3.0,-999.0,89,0.00,,,0.76,0,Wunderground v.1.15,2013-11-20 02:30:00,
2013-11-19 18:35:00,44.0,41.0,29.94,ENE,68,3.0,-999.0,89,0.00,,,0.76,0,Wunderground v.1.15,2013-11-20 02:35:00,
2013-11-19 18:40:00,43.8,40.8,29.94,ENE,68,2.0,-999.0,89,0.00,,,0.76,0,Wunderground v.1.15,2013-11-20 02:40:00,
2013-11-19 18:45:00,43.7,40.7,29.94,ENE,68,3.0,-999.0,89,0.00,,,0.76,0,Wunderground v.1.15,2013-11-20 02:45:00,
2013-11-19 18:50:00,43.5,40.5,29.94,ENE,68,4.0,-999.0,89,0.00,,,0.76,0,Wunderground v.1.15,2013-11-20 02:50:00,
2013-11-19 18:55:00,43.3,40.3,29.95,ENE,68,3.0,-999.0,89,0.00,,,0.76,0,Wunderground v.1.15,2013-11-20 02:55:00,
2013-11-19 19:00:00,43.1,40.1,29.95,ENE,68,4.0,-999.0,89,0.00,,,0.76,0,Wunderground v.1.15,2013-11-20 03:00:00,
2013-11-19 19:05:00,42.9,39.9,29.95,ENE,68,4.0,-999.0,89,0.00,,,0.76,0,Wunderground v.1.15,2013-11-20 03:05:00,
2013-11-19 19:10:00,42.9,39.9,29.95,ENE,68,3.0,-999.0,89,0.00,,,0.76,0,Wunderground v.1.15,2013-11-20 03:10:00,
2013-11-19 19:15:00,42.7,39.7,29.96,ENE,68,2.0,-999.0,89,0.00,,,0.76,0,Wunderground v.1.15,2013-11-20 03:15:00,
2013-11-19 19:20:00,42.5,39.5,29.96,ENE,68,3.0,-999.0,89,0.00,,,0.76,0,Wunderground v.1.15,2013-11-20 03:20:00,
2013-11-19 19:25:00,42.4,39.4,29.96,ENE,68,2.0,-999.0,89,0.00,,,0.76,0,Wunderground v.1.15,2013-11-20 03:25:00,
2013-11-19 19:30:00,42.3,39.3,29.96,ENE,68,2.0,-999.0,89,0.00,,,0.76,0,Wunderground v.1.15,2013-11-20 03:30:00,
2013-11-19 19:35:00,42.1,38.8,29.97,NE,45,4.0,-999.0,88,0.00,,,0.76,0,Wunderground v.1.15,2013-11-20 03:35:00,
2013-11-19 19:40:00,42.0,38.7,29.97,NE,45,3.0,-999.0,88,0.00,,,0.76,0,Wunderground v.1.15,2013-11-20 03:40:00,
2013-11-19 19:45:00,41.9,38.6,29.97,ENE,68,2.0,-999.0,88,0.00,,,0.76,0,Wunderground v.1.15,2013-11-20 03:45:00,
2013-11-19 19:50:00,41.8,38.5,29.98,ENE,68,3.0,-999.0,88,0.00,,,0.76,0,Wunderground v.1.15,2013-11-20 03:50:00,
2013-11-19 19:55:00,41.7,38.4,29.98,ENE,68,4.0,-999.0,88,0.00,,,0.76,0,Wunderground v.1.15,2013-11-20 03:55:00,
2013-11-19 20:00:00,41.5,38.2,29.98,ENE,68,3.0,-999.0,88,0.00,,,0.76,0,Wunderground v.1.15,2013-11-20 04:00:00,
2013-11-19 20:05:00,41.4,37.8,29.98,ENE,68,2.0,-999.0,87,0.00,,,0.76,0,Wunderground v.1.15,2013-11-20 04:05:00,
2013-11-19 20:10:00,41.3,37.7,29.98,East,90,2.0,-999.0,87,0.00,,,0.76,0,Wunderground v.1.15,2013-11-20 04:10:00,
2013-11-19 20:15:00,41.1,37.5,29.98,ENE,68,3.0,-999.0,87,0.00,,,0.76,0,Wunderground v.1.15,2013-11-20 04:15:00,
2013-11-19 20:20:00,41.1,37.5,29.99,ENE,68,3.0,-999.0,87,0.00,,,0.76,0,Wunderground v.1.15,2013-11-20 04:20:00,
2013-11-19 20:25:00,41.0,37.4,29.99,ENE,68,2.0,-999.0,87,0.00,,,0.76,0,Wunderground v.1.15,2013-11-20 04:25:00,
2013-11-19 20:30:00,40.9,37.3,29.99,ENE,68,2.0,-999.0,87,0.00,,,0.76,0,Wunderground v.1.15,2013-11-20 04:30:00,
2013-11-19 20:35:00,40.8,37.2,29.99,ENE,68,2.0,-999.0,87,0.00,,,0.76,0,Wunderground v.1.15,2013-11-20 04:35:00,
2013-11-19 20:40:00,40.7,37.1,29.99,East,90,2.0,-999.0,87,0.00,,,0.76,0,Wunderground v.1.15,2013-11-20 04:40:00,
2013-11-19 20:45:00,40.5,36.6,30.00,ENE,68,2.0,-999.0,86,0.00,,,0.76,0,Wunderground v.1.15,2013-11-20 04:45:00,
2013-11-19 20:50:00,40.4,36.5,30.00,East,90,2.0,-999.0,86,0.00,,,0.76,0,Wunderground v.1.15,2013-11-20 04:50:00,
2013-11-19 20:55:00,40.3,36.4,30.00,ENE,68,2.0,-999.0,86,0.00,,,0.76,0,Wunderground v.1.15,2013-11-20 04:55:00,
2013-11-19 21:00:00,40.2,36.3,30.00,ENE,68,1.0,-999.0,86,0.00,,,0.76,0,Wunderground v.1.15,2013-11-20 05:00:00,
2013-11-19 21:05:00,40.0,36.2,30.00,ENE,68,1.0,-999.0,86,0.00,,,0.76,0,Wunderground v.1.15,2013-11-20 05:05:00,
2013-11-19 21:10:00,39.9,36.1,30.00,NE,45,2.0,-999.0,86,0.00,,,0.76,0,Wunderground v.1.15,2013-11-20 05:10:00,
2013-11-19 21:15:00,39.8,36.0,30.00,ENE,68,2.0,-999.0,86,0.00,,,0.76,0,Wunderground v.1.15,2013-11-20 05:15:00,
2013-11-19 21:20:00,39.8,36.0,30.00,ENE,68,2.0,-999.0,86,0.00,,,0.76,0,Wunderground v.1.15,2013-11-20 05:20:00,
2013-11-19 21:25:00,39.7,35.9,30.01,ENE,68,2.0,-999.0,86,0.00,,,0.76,0,Wunderground v.1.15,2013-11-20 05:25:00,
2013-11-19 21:30:00,39.7,35.9,30.01,East,90,1.0,-999.0,86,0.00,,,0.76,0,Wunderground v.1.15,2013-11-20 05:30:00,
2013-11-19 21:35:00,39.5,35.7,30.01,ENE,68,1.0,-999.0,86,0.00,,,0.76,0,Wunderground v.1.15,2013-11-20 05:35:00,
2013-11-19 21:40:00,39.5,35.7,30.01,ENE,68,1.0,-999.0,86,0.00,,,0.76,0,Wunderground v.1.15,2013-11-20 05:40:00,
2013-11-19 21:45:00,39.3,35.5,30.01,ENE,68,2.0,-999.0,86,0.00,,,0.76,0,Wunderground v.1.15,2013-11-20 05:45:00,
2013-11-19 21:50:00,39.3,35.2,30.01,ENE,68,1.0,-999.0,85,0.00,,,0.76,0,Wunderground v.1.15,2013-11-20 05:50:00,
2013-11-19 21:55:00,39.2,35.1,30.02,ENE,68,2.0,-999.0,85,0.00,,,0.76,0,Wunderground v.1.15,2013-11-20 05:55:00,
2013-11-19 22:00:00,39.1,35.0,30.02,ENE,68,2.0,-999.0,85,0.00,,,0.76,0,Wunderground v.1.15,2013-11-20 06:00:00,
2013-11-19 22:05:00,39.1,35.0,30.02,ENE,68,2.0,-999.0,85,0.00,,,0.76,0,Wunderground v.1.15,2013-11-20 06:05:00,
2013-11-19 22:10:00,39.0,34.9,30.02,East,90,1.0,-999.0,85,0.00,,,0.76,0,Wunderground v.1.15,2013-11-20 06:10:00,
2013-11-19 22:15:00,38.8,34.7,30.03,East,90,1.0,-999.0,85,0.00,,,0.76,0,Wunderground v.1.15,2013-11-20 06:15:00,
2013-11-19 22:20:00,38.8,34.7,30.03,East,90,1.0,-999.0,85,0.00,,,0.76,0,Wunderground v.1.15,2013-11-20 06:20:00,
2013-11-19 22:25:00,38.7,34.6,30.03,NE,45,1.0,-999.0,85,0.00,,,0.76,0,Wunderground v.1.15,2013-11-20 06:25:00,
2013-11-19 22:30:00,38.7,34.6,30.03,East,90,0.0,-999.0,85,0.00,,,0.76,0,Wunderground v.1.15,2013-11-20 06:30:00,
2013-11-19 22:35:00,38.6,34.5,30.03,East,90,1.0,-999.0,85,0.00,,,0.76,0,Wunderground v.1.15,2013-11-20 06:35:00,
2013-11-19 22:40:00,38.5,34.4,30.04,East,90,1.0,-999.0,85,0.00,,,0.76,0,Wunderground v.1.15,2013-11-20 06:40:00,
2013-11-19 22:45:00,38.5,34.7,30.04,ENE,68,1.0,-999.0,86,0.00,,,0.76,0,Wunderground v.1.15,2013-11-20 06:45:00,
2013-11-19 22:50:00,38.5,34.7,30.04,ESE,113,0.0,-999.0,86,0.00,,,0.76,0,Wunderground v.1.15,2013-11-20 06:50:00,
2013-11-19 22:55:00,38.4,34.6,30.04,ENE,68,1.0,-999.0,86,0.00,,,0.76,0,Wunderground v.1.15,2013-11-20 06:55:00,
2013-11-19 23:00:00,38.4,34.6,30.04,ESE,113,1.0,-999.0,86,0.00,,,0.76,0,Wunderground v.1.15,2013-11-20 07:00:00,
2013-11-19 23:05:00,38.3,34.5,30.04,East,90,0.0,-999.0,86,0.00,,,0.76,0,Wunderground v.1.15,2013-11-20 07:05:00,
2013-11-19 23:10:00,38.3,34.5,30.04,East,90,1.0,-999.0,86,0.00,,,0.76,0,Wunderground v.1.15,2013-11-20 07:10:00,
2013-11-19 23:15:00,38.2,34.4,30.04,East,90,1.0,-999.0,86,0.00,,,0.76,0,Wunderground v.1.15,2013-11-20 07:15:00,
2013-11-19 23:20:00,38.1,34.3,30.05,East,90,0.0,-999.0,86,0.00,,,0.76,0,Wunderground v.1.15,2013-11-20 07:20:00,
2013-11-19 23:25:00,38.0,34.2,30.05,ENE,68,2.0,-999.0,86,0.00,,,0.76,0,Wunderground v.1.15,2013-11-20 07:25:00,
2013-11-19 23:30:00,37.9,34.1,30.05,ENE,68,1.0,-999.0,86,0.00,,,0.76,0,Wunderground v.1.15,2013-11-20 07:30:00,
2013-11-19 23:35:00,37.8,34.0,30.05,East,90,1.0,-999.0,86,0.00,,,0.76,0,Wunderground v.1.15,2013-11-20 07:35:00,
2013-11-19 23:40:00,37.8,34.0,30.06,East,90,0.0,-999.0,86,0.00,,,0.76,0,Wunderground v.1.15,2013-11-20 07:40:00,
2013-11-19 23:45:00,37.7,33.9,30.06,East,90,1.0,-999.0,86,0.00,,,0.76,0,Wunderground v.1.15,2013-11-20 07:45:00,
2013-11-19 23:50:00,37.6,33.8,30.06,ENE,68,1.0,-999.0,86,0.00,,,0.76,0,Wunderground v.1.15,2013-11-20 07:50:00,
2013-11-19 23:55:00,37.5,33.7,30.06,ENE,68,1.0,-999.0,86,0.00,,,0.76,0,Wunderground v.1.15,2013-11-20 07:55:00,